Starlink 30164

operational
NORAD ID: 57500 Int'l Des: 2023-113 Owner: SPXS Country: US Constellation: starlink
LEOCIRCULAR

About Starlink 30164

Description loading...

Live Position

Loading 3D Globe...

Upcoming Passes

Altitude History

Altitude vs Time

uPlot chart will show altitude changes over time

Two-Line Element Set

1 57500U 23113F 25354.25987954 -.00000750 00000-0 -40447-4 0 9992
2 57500 43.0030 88.7835 0001275 284.4470 75.6231 15.02542509131712
Epoch: Dec 20, 2025 • Age: 19 hours

Current Status

Altitude 571.4 km
Velocity 7.58 km/s
Sub-Earth Point -42.54°S, 121.37°W
Launch Date Aug 7, 2023
Age 2.3 years
Type internet

Technical Details

Classification Payload
Mass 730.00 kg
Dry Mass 700.00 kg
Total Mass 730.00 kg
Length 0.30 m
Diameter 4.10 m
Span 29.00 m
Shape Box + pan
Manufacturer SPXS
Bus Type Starlink V2M
Phase Status In Orbit
Owner/State SPXS/US

Large Constellations

Loading constellations...